Location: Lake Zurich
(42.1970°N, 88.0930°W)
Time: 21:04:14
(UTC-05:00)

Daily predictions for brighter satellites

Satellite Brightness Start Highest point End
(mag) Time Altitude Azimuth Time Altitude Azimuth Time Altitude Azimuth
Cosmos 2056 Rocket 3.6 18:29:58 10° NNW 18:35:14 55° ENE 18:40:22 10° SE
Cosmos 1461 2.8 18:32:00 10° SSW 18:35:59 81° ESE 18:40:11 10° NE
Cosmos 2082 Rocket 4.4 18:31:42 10° WSW 18:36:14 24° NW 18:40:48 10° N
Cosmos 2360 Rocket 3.0 18:32:36 10° N 18:37:37 31° NE 18:42:36 10° ESE
Cosmos 2058 3.9 18:35:29 10° NNE 18:39:04 27° ENE 18:42:37 10° SE
Cosmos 1980 Rocket 3.9 18:33:54 10° NW 18:39:08 38° WSW 18:44:20 10° S
RESURS DK-1 3.7 18:39:57 10° N 18:43:13 22° NE 18:46:27 10° ESE
COSMO-SKYMED 1 2.8 18:39:06 10° NNE 18:43:20 50° E 18:47:33 10° S
Cosmos 2322 Rocket 2.2 18:38:19 10° NNW 18:43:57 80° ENE 18:49:35 10° SSE
Cosmos 1626 2.6 18:42:25 10° N 18:45:57 39° ENE 18:49:28 10° SSE
deb Kosmos-1763 4.1 18:44:26 10° SSW 18:48:15 84° ESE 18:52:06 10° NNE
Cosmos 2218 Rocket 3.9 18:42:37 10° S 18:48:43 69° E 18:54:49 10° NNE
Aureole 1 Rocket 3.8 18:43:51 10° SSW 18:50:44 78° ESE 18:55:57 10° NNE
Meteor 1-11 4.3 18:45:02 10° N 18:50:50 68° ENE 18:56:31 10° SSE
BREEZE-M DEB (TANK) 2.3 18:49:20 10° SSW 18:51:15 26° SE 18:52:35 14° E
Cosmos 1408 Rocket 3.8 18:47:44 10° NNW 18:52:11 76° W 18:56:37 10° S
Lacrosse 5 rocket 3.2 18:48:22 10° W 18:52:16 28° NNW 18:56:01 10° NNE
Cosmos 1452 Rocket 4.2 18:48:18 10° N 18:53:02 33° ENE 18:57:45 10° SE
Meteor 2-15 Rocket 4.5 18:46:59 10° N 18:53:07 87° E 18:59:14 10° S
EO 1 Del DPAF 3.2 18:49:58 10° NNE 18:53:49 87° E 18:57:40 10° SSW
USA 267 4.1 18:50:18 10° ENE 18:55:49 29° SE 19:01:19 10° S
SJ-6B 4.3 18:55:12 12° E 18:56:51 16° ENE 18:59:11 10° NNE
Cosmos 1328 4.0 18:53:33 10° NNW 18:57:32 75° W 19:01:28 10° S
Atlas Centaur 2 3.6 18:55:49 10° SW 18:59:40 23° S 19:04:14 10° ESE
Cosmos 1727 Rocket 4.1 18:53:41 10° N 19:00:00 62° E 19:06:16 10° SSE
DELTA 2 R/B (1) 3.7 18:55:41 10° W 19:01:13 69° S 19:05:56 15° E
Cosmos 1339 Rocket 4.5 18:56:16 10° N 19:02:37 67° E 19:08:50 10° SSE
Cosmos 2322 4.2 18:57:46 10° N 19:03:09 39° ENE 19:08:28 10° SE
MONITOR-E 4.2 19:01:36 10° S 19:04:40 81° WSW 19:07:47 10° NNW
Meteor 1-16 Rocket 4.4 19:00:50 10° SSW 19:06:06 72° W 19:11:28 10° N
BREEZE M DEB (TANK) 3.6 19:03:21 10° WNW 19:08:35 30° N 19:10:26 16° NE
YAOGAN 1 3.6 19:04:46 10° S 19:08:58 50° W 19:13:12 10° NNW
ALOS 2.2 19:05:46 10° SSE 19:10:22 63° ENE 19:15:00 10° N
CZ-4C R/B 3.5 19:09:10 10° SE 19:12:16 16° ESE 19:12:17 16° ESE
GP-B 3.3 19:09:23 10° N 19:13:50 78° W 19:18:15 10° S
FENGYUN 3A 3.6 19:09:42 10° SSE 19:15:02 69° ENE 19:20:26 10° N
Cosmos 1703 3.1 19:11:50 10° N 19:15:47 73° E 19:19:41 10° SSE
CZ-4 R/B 3.8 19:12:49 10° SSW 19:16:28 28° W 19:20:07 10° NW
Abrixas rocket 3.0 19:13:28 10° W 19:16:40 45° NNW 19:18:42 19° NE
Cosmos 1400 Rocket 3.1 19:20:58 10° NNW 19:25:01 71° W 19:29:00 10° S
Tiangong 1 3.3 19:26:21 10° WSW 19:28:07 16° SSW 19:29:46 10° S
Cosmos 2219 Rocket 3.3 19:23:43 10° N 19:28:09 23° NE 19:29:17 22° ENE
USA 234 4.3 19:28:01 18° ENE 19:31:49 31° NNE 19:37:23 10° NW
Thor Agena Rocket 3.4 19:26:53 10° NNE 19:31:58 62° ESE 19:36:57 10° S
Cosmos 1048 Rocket 4.4 19:30:34 10° SSE 19:35:14 37° ESE 19:38:42 17° NE
GRACE-2 4.4 19:33:21 10° S 19:35:52 54° W 19:38:25 10° N
SL-16 R/B 3.7 19:32:12 10° NW 19:37:23 37° WSW 19:42:32 10° S
Cosmos 1908 3.1 19:34:49 10° S 19:38:44 76° E 19:42:40 10° NNE
Cosmos 2237 4.2 19:33:13 10° NNW 19:38:55 61° ENE 19:42:58 19° SE
Cosmos 1420 Rocket 4.0 19:35:18 10° NNW 19:40:36 62° ENE 19:44:26 18° SE
Iridium 4 Rocket 3.6 19:35:41 10° S 19:41:01 68° E 19:46:47 10° N
Cosmos 2151 3.6 19:37:29 10° NNW 19:41:43 57° W 19:45:52 10° S
Envisat 3.9 19:46:16 29° ENE 19:46:16 29° ENE 19:50:15 10° N
H-2A R/B 2.6 19:43:00 15° SSE 19:46:12 77° ENE 19:50:07 10° N
Delta 2 Rocket 4.4 19:44:54 10° SW 19:47:45 24° S 19:47:45 24° S
Resurs 01 Rocket 2.8 19:49:59 27° NE 19:49:59 27° NE 19:52:42 10° N
Cosmos 44 4.1 19:45:13 10° S 19:47:53 28° SSE 19:47:53 28° SSE
GENESIS II 4.1 19:46:38 10° SSW 19:50:36 82° ESE 19:51:47 44° NE
Cosmos 2237 Rocket 3.6 19:51:52 10° N 19:55:40 22° NE 19:55:40 22° NE
FREGAT/IRIS 3.2 19:56:03 44° SSW 19:56:40 56° W 19:59:38 10° NNW
Cosmos 2221 2.5 19:53:33 10° S 19:57:52 81° W 20:02:14 10° N
Cosmos 44 Rocket 3.8 19:55:15 10° S 19:58:42 38° SSE 19:58:42 38° SSE
CZ-2D R/B 4.4 20:01:43 31° NNE 20:01:43 31° NNE 20:03:57 10° N
SL-16 R/B 4.3 20:01:39 10° NNE 20:02:44 12° NNE 20:02:44 12° NNE
Cosmos 1535 Rocket 4.3 19:58:33 10° S 20:04:39 72° E 20:10:45 10° NNE
Cosmos 1315 Rocket 3.8 20:02:02 10° NNW 20:05:56 47° W 20:09:52 10° S
Cosmos 921 Rocket 3.7 20:04:22 10° NNW 20:08:45 56° WSW 20:11:50 18° S
Cosmos 158 Rocket 3.8 20:03:52 10° SSW 20:08:53 90° NW 20:14:05 10° NNE
HJ-1C 4.2 20:10:02 49° NW 20:10:02 49° NW 20:12:41 10° NNW
CSL-04 DEB 4.4 20:08:24 48° S 20:09:30 79° WSW 20:13:36 10° NNW
BREEZE-M DEB (TANK) 4.4 20:09:18 10° WSW 20:09:32 11° SW 20:09:32 11° SW
COSMOS 2428 2.6 20:09:16 10° NNW 20:14:58 80° ENE 20:16:20 54° SE
Cosmos 1269 Rocket 3.8 20:10:09 10° SSW 20:15:24 75° ESE 20:16:59 46° NE
Cosmos 2333 Rocket 2.6 20:13:04 10° NNW 20:18:02 45° NE 20:18:02 45° NE
RESURS DK-1 3.8 20:17:34 10° NW 20:21:21 35° WSW 20:23:04 24° SSW
Cosmos 2360 Rocket 3.4 20:16:26 10° NW 20:21:41 40° WSW 20:26:55 10° S
Cosmos 2098 Rocket 3.5 20:17:38 10° SSW 20:21:42 65° W 20:26:58 10° N
Cosmos 2219 3.1 20:21:06 10° SSW 20:26:50 80° ESE 20:27:40 65° NE
MOS 1-B Rocket 3.7 20:25:31 52° SSE 20:27:00 87° ENE 20:32:58 10° NNW
SJ-6B 4.1 20:30:52 35° WSW 20:31:15 35° W 20:34:43 10° NNW
Lacrosse 5 rocket 4.0 20:31:08 10° NNW 20:32:44 12° N 20:33:24 11° N
NOSS 0 Rocket 4.1 20:27:10 10° NNW 20:32:33 53° NE 20:32:33 53° NE
SL-8 R/B 4.1 20:30:05 10° WSW 20:34:26 62° NW 20:34:26 62° NW
Cosmos 1821 Rocket 4.5 20:30:34 10° SSW 20:36:36 59° W 20:42:45 10° N
Sich 1 4.2 20:32:27 10° NNW 20:35:07 36° NNW 20:35:07 36° NNW
USA 267 3.2 20:37:01 46° NE 20:39:13 80° NW 20:45:45 10° SW
Cosmos 1934 Rocket 4.3 20:39:33 10° SSW 20:45:51 66° W 20:52:13 10° N
DELTA 2 R/B (1) 4.2 20:42:01 10° W 20:46:42 48° SW 20:46:42 48° SW
Atlas Centaur 2 3.9 20:43:33 10° WSW 20:47:12 23° SSW 20:47:12 23° SSW
Spot 2 Rocket 4.3 20:51:35 45° NNW 20:51:35 45° NNW 20:55:09 10° NNW
Gbstr 26 Del rocket 4.1 20:48:36 10° NW 20:53:03 61° NNW 20:53:03 61° NNW
CZ-4C R/B 3.2 20:54:37 10° SW 20:57:35 36° SW 20:57:35 36° SW
Cosmos 2219 Rocket 3.1 21:06:59 10° NNW 21:11:01 44° WNW 21:11:01 44° WNW
BREEZE-M DEB (TANK) 3.9 21:01:23 10° WNW 21:11:54 61° WNW 21:11:54 61° WNW
USA 234 3.6 21:15:23 57° NNW 21:15:23 57° NNW 21:20:39 10° NW
Resurs 01 Rocket 4.3 21:27:35 17° NW 21:27:35 17° NW 21:28:55 10° NW
Cosmos 2237 Rocket 4.1 21:35:08 10° NNW 21:37:31 25° NW 21:37:31 25° NW
Cosmos 2333 Rocket 4.5 21:57:52 10° NW 22:00:04 20° WNW 22:00:04 20° WNW
